KLM2640 EKCH-EGPH

Flight info

Callsign KLM2640
Flight time 1h 36m
Altitude 36000
Route ODDON P60 BAMPI DCT NAVIK DCT BUSOM DCT PETIL DCT SURAT DCT AGPED
Aircraft B738/M-SDE2E3FGHIRWXY/LB1

Departure

Time 2026-04-26 11:38
Airport Copenhagen Kastrup Airport (EKCH)

Arrival

Time 2026-04-26 13:15
Airport Edinburgh Airport (EGPH)
Time Latitude Longitude Altitude Speed Heading
2026-04-26 11:13 55.62699 12.64165 27 ft 0 kts 33°
2026-04-26 11:27 55.62687 12.64151 28 ft 4 kts 33°
2026-04-26 11:27 55.62668 12.64130 28 ft 4 kts 37°
2026-04-26 11:27 55.62650 12.64096 25 ft 4 kts 60°
2026-04-26 11:28 55.62640 12.64057 27 ft 2 kts 69°
2026-04-26 11:28 55.62638 12.64049 27 ft 1 kts 69°
2026-04-26 11:31 55.62639 12.64064 28 ft 5 kts 85°
2026-04-26 11:31 55.62610 12.64168 23 ft 14 kts 123°
2026-04-26 11:31 55.62553 12.64323 23 ft 15 kts 122°
2026-04-26 11:31 55.62497 12.64474 22 ft 15 kts 123°
2026-04-26 11:32 55.62444 12.64623 21 ft 14 kts 121°
2026-04-26 11:32 55.62389 12.64769 22 ft 15 kts 126°
2026-04-26 11:32 55.62336 12.64912 27 ft 13 kts 122°
2026-04-26 11:32 55.62287 12.65050 22 ft 13 kts 122°
2026-04-26 11:33 55.62230 12.65167 22 ft 13 kts 162°
2026-04-26 11:33 55.62151 12.65114 25 ft 13 kts 213°
2026-04-26 11:33 55.62062 12.65012 22 ft 18 kts 213°
2026-04-26 11:33 55.61945 12.64877 16 ft 23 kts 212°
2026-04-26 11:34 55.61804 12.64716 19 ft 24 kts 213°
2026-04-26 11:34 55.61670 12.64561 18 ft 23 kts 213°
2026-04-26 11:34 55.61540 12.64414 17 ft 22 kts 208°
2026-04-26 11:34 55.61413 12.64269 17 ft 21 kts 213°
2026-04-26 11:35 55.61291 12.64126 17 ft 21 kts 213°
2026-04-26 11:35 55.61172 12.63986 18 ft 20 kts 213°
2026-04-26 11:35 55.61056 12.63853 17 ft 20 kts 213°
2026-04-26 11:35 55.60944 12.63725 20 ft 19 kts 213°
2026-04-26 11:36 55.60840 12.63611 20 ft 15 kts 200°
2026-04-26 11:36 55.60752 12.63661 23 ft 14 kts 136°
2026-04-26 11:36 55.60696 12.63792 27 ft 13 kts 114°
2026-04-26 11:36 55.60713 12.63929 31 ft 10 kts 48°
2026-04-26 11:37 55.60733 12.63963 27 ft 0 kts 41°
2026-04-26 11:37 55.60777 12.64031 27 ft 32 kts 41°
2026-04-26 11:37 55.61121 12.64560 19 ft 97 kts 41°
2026-04-26 11:38 55.61765 12.65554 24 ft 146 kts 40°
2026-04-26 11:38 55.62548 12.66797 486 ft 154 kts 39°
2026-04-26 11:38 55.63390 12.68119 1071 ft 165 kts 36°
2026-04-26 11:38 55.64264 12.69491 1628 ft 172 kts 37°
2026-04-26 11:39 55.65222 12.70871 2021 ft 186 kts 23°
2026-04-26 11:39 55.66450 12.71143 2521 ft 182 kts 343°
2026-04-26 11:39 55.67554 12.69913 2663 ft 199 kts 307°
2026-04-26 11:39 55.68019 12.67549 2878 ft 215 kts 273°
2026-04-26 11:40 55.67952 12.64851 3185 ft 226 kts 268°
2026-04-26 11:40 55.67830 12.61951 3373 ft 245 kts 267°
2026-04-26 11:40 55.67696 12.58926 4017 ft 247 kts 268°
2026-04-26 11:40 55.67559 12.55864 4731 ft 251 kts 267°
2026-04-26 11:41 55.67420 12.52782 5483 ft 250 kts 268°
2026-04-26 11:42 55.66433 12.30297 10325 ft 270 kts 270°
2026-04-26 11:43 55.66287 12.26920 10730 ft 285 kts 270°
2026-04-26 11:43 55.66132 12.23286 10898 ft 306 kts 270°
2026-04-26 11:43 55.65964 12.19393 11062 ft 327 kts 270°
2026-04-26 11:43 55.65782 12.15259 11212 ft 346 kts 270°
2026-04-26 11:44 55.65587 12.10921 11566 ft 358 kts 270°
2026-04-26 11:44 55.65383 12.06505 12137 ft 362 kts 270°
2026-04-26 11:44 55.65174 12.02042 12798 ft 364 kts 270°
2026-04-26 11:44 55.65131 11.97568 13441 ft 363 kts 279°
2026-04-26 11:45 55.65414 11.93118 14099 ft 365 kts 281°
2026-04-26 11:45 55.65734 11.88639 14704 ft 368 kts 281°
2026-04-26 11:45 55.66055 11.84145 15383 ft 369 kts 281°
2026-04-26 11:45 55.66370 11.79626 16019 ft 371 kts 281°
2026-04-26 11:46 55.66679 11.75083 16628 ft 373 kts 281°
2026-04-26 11:46 55.66982 11.70499 17269 ft 375 kts 280°
2026-04-26 11:46 55.67280 11.65893 17889 ft 378 kts 280°
2026-04-26 11:46 55.67575 11.61252 18499 ft 380 kts 280°
2026-04-26 11:47 55.67870 11.56576 19027 ft 383 kts 280°
2026-04-26 11:47 55.68164 11.51863 19528 ft 386 kts 280°
2026-04-26 11:47 55.68458 11.47120 20026 ft 389 kts 279°
2026-04-26 11:47 55.68751 11.42350 20511 ft 391 kts 279°
2026-04-26 11:48 55.69044 11.37533 20988 ft 394 kts 279°
2026-04-26 11:48 55.69335 11.32735 21454 ft 397 kts 279°
2026-04-26 11:48 55.69631 11.27815 21922 ft 399 kts 279°
2026-04-26 11:48 55.69926 11.22892 22325 ft 403 kts 278°
2026-04-26 11:49 55.70221 11.17930 22723 ft 407 kts 278°
2026-04-26 11:49 55.70516 11.12927 23170 ft 409 kts 278°
2026-04-26 11:49 55.70810 11.07893 23617 ft 411 kts 278°
2026-04-26 11:49 55.71104 11.02836 24015 ft 413 kts 278°
2026-04-26 11:50 55.71396 10.97754 24368 ft 415 kts 278°
2026-04-26 11:50 55.71689 10.92649 24733 ft 417 kts 278°
2026-04-26 11:50 55.71980 10.87526 25092 ft 418 kts 278°
2026-04-26 11:50 55.72270 10.82383 25428 ft 420 kts 278°
2026-04-26 11:51 55.72560 10.77207 25757 ft 422 kts 278°
2026-04-26 11:51 55.72849 10.72018 26083 ft 424 kts 278°
2026-04-26 11:51 55.73132 10.66880 26399 ft 425 kts 278°
2026-04-26 11:51 55.73418 10.61649 26708 ft 427 kts 278°
2026-04-26 11:52 55.73704 10.56393 27008 ft 428 kts 277°
2026-04-26 11:52 55.73896 10.52835 27209 ft 429 kts 277°
2026-04-26 11:52 55.74270 10.45831 27593 ft 432 kts 277°
2026-04-26 11:52 55.74551 10.40525 27955 ft 431 kts 277°
2026-04-26 11:53 55.74828 10.35244 28412 ft 428 kts 277°
2026-04-26 11:53 55.75101 10.30000 28900 ft 426 kts 277°
2026-04-26 11:53 55.75370 10.24778 29333 ft 424 kts 277°
2026-04-26 11:54 55.75902 10.14362 30125 ft 423 kts 277°
2026-04-26 11:54 55.76164 10.09162 30455 ft 423 kts 276°
2026-04-26 11:54 55.76425 10.03956 30745 ft 423 kts 276°
2026-04-26 11:54 55.76682 9.98770 31097 ft 421 kts 276°
2026-04-26 11:55 55.76936 9.93599 31461 ft 419 kts 276°
2026-04-26 11:55 55.77187 9.88441 31778 ft 419 kts 276°
2026-04-26 11:55 55.77435 9.83296 32070 ft 419 kts 276°
2026-04-26 11:55 55.77682 9.78147 32383 ft 418 kts 276°
2026-04-26 11:56 55.77925 9.73014 32722 ft 416 kts 276°
2026-04-26 11:56 55.78166 9.67894 33038 ft 416 kts 276°
2026-04-26 11:56 55.78404 9.62776 33329 ft 415 kts 276°
2026-04-26 11:56 55.78639 9.57678 33597 ft 415 kts 276°
2026-04-26 11:57 55.78874 9.52556 33769 ft 417 kts 276°
2026-04-26 11:57 55.79107 9.47407 34003 ft 418 kts 276°
2026-04-26 11:57 55.79338 9.42272 34342 ft 416 kts 275°
2026-04-26 11:57 55.79565 9.37165 34628 ft 414 kts 275°
2026-04-26 11:58 55.79790 9.32062 34834 ft 415 kts 275°
2026-04-26 11:58 55.80013 9.26941 35015 ft 416 kts 275°
2026-04-26 11:58 55.80234 9.21824 35238 ft 415 kts 275°
2026-04-26 11:58 55.80453 9.16705 35465 ft 415 kts 275°
2026-04-26 11:59 55.80670 9.11587 35648 ft 416 kts 275°
2026-04-26 11:59 55.80885 9.06461 35845 ft 416 kts 275°
2026-04-26 11:59 55.81098 9.01332 36046 ft 416 kts 275°
2026-04-26 11:59 55.81307 8.96264 36149 ft 418 kts 275°
2026-04-26 12:00 55.81517 8.91106 36269 ft 419 kts 275°
2026-04-26 12:00 55.81930 8.80781 36316 ft 418 kts 275°
2026-04-26 12:01 55.82334 8.70491 36324 ft 417 kts 275°
2026-04-26 12:01 55.82728 8.60214 36320 ft 416 kts 275°
2026-04-26 12:02 55.83113 8.49959 36327 ft 415 kts 275°
2026-04-26 12:02 55.83489 8.39706 36323 ft 415 kts 274°
2026-04-26 12:03 55.83857 8.29460 36334 ft 415 kts 274°
2026-04-26 12:03 55.84216 8.19196 36333 ft 416 kts 274°
2026-04-26 12:04 55.84568 8.08892 36339 ft 417 kts 274°
2026-04-26 12:04 55.84913 7.98561 36341 ft 418 kts 274°
2026-04-26 12:05 55.85249 7.88219 36337 ft 419 kts 274°
2026-04-26 12:05 55.85575 7.77915 36346 ft 420 kts 274°
2026-04-26 12:06 55.85895 7.67525 36347 ft 421 kts 274°
2026-04-26 12:06 55.86207 7.57122 36349 ft 421 kts 274°
2026-04-26 12:07 55.86510 7.46706 36350 ft 422 kts 274°
2026-04-26 12:07 55.86805 7.36275 36350 ft 422 kts 274°
2026-04-26 12:08 55.87090 7.25848 36348 ft 422 kts 273°
2026-04-26 12:08 55.87367 7.15422 36356 ft 422 kts 273°
2026-04-26 12:09 55.87635 7.04999 36358 ft 421 kts 273°
2026-04-26 12:09 55.87894 6.94570 36358 ft 421 kts 273°
2026-04-26 12:10 55.88145 6.84157 36356 ft 421 kts 273°
2026-04-26 12:10 55.88386 6.73732 36356 ft 421 kts 273°
2026-04-26 12:11 55.88618 6.63328 36361 ft 421 kts 273°
2026-04-26 12:11 55.88842 6.52910 36362 ft 421 kts 273°
2026-04-26 12:12 55.89057 6.42488 36361 ft 421 kts 273°
2026-04-26 12:12 55.89263 6.32070 36367 ft 421 kts 273°
2026-04-26 12:13 55.89461 6.21639 36363 ft 421 kts 272°
2026-04-26 12:13 55.89649 6.11198 36367 ft 422 kts 272°
2026-04-26 12:14 55.89828 6.00823 36370 ft 422 kts 272°
2026-04-26 12:14 55.90000 5.90365 36373 ft 423 kts 272°
2026-04-26 12:15 55.90163 5.79885 36375 ft 423 kts 272°
2026-04-26 12:15 55.90292 5.71105 36375 ft 423 kts 272°
2026-04-26 12:16 55.90439 5.60603 36371 ft 424 kts 272°
2026-04-26 12:16 55.90576 5.50172 36375 ft 424 kts 272°
2026-04-26 12:17 55.90705 5.39673 36376 ft 424 kts 272°
2026-04-26 12:17 55.90825 5.29168 36374 ft 424 kts 272°
2026-04-26 12:18 55.90937 5.18666 36378 ft 424 kts 272°
2026-04-26 12:18 55.91039 5.08175 36377 ft 423 kts 272°
2026-04-26 12:19 55.91132 4.97679 36376 ft 423 kts 272°
2026-04-26 12:19 55.91216 4.87195 36378 ft 423 kts 272°
2026-04-26 12:20 55.91291 4.76710 36380 ft 423 kts 272°
2026-04-26 12:20 55.91358 4.66235 36382 ft 423 kts 271°
2026-04-26 12:21 55.91415 4.55760 36380 ft 422 kts 271°
2026-04-26 12:21 55.91464 4.45285 36384 ft 422 kts 271°
2026-04-26 12:22 55.91504 4.34829 36376 ft 422 kts 271°
2026-04-26 12:22 55.91534 4.24367 36386 ft 422 kts 271°
2026-04-26 12:23 55.91556 4.13916 36387 ft 422 kts 271°
2026-04-26 12:23 55.91569 4.03462 36385 ft 422 kts 271°
2026-04-26 12:24 55.91574 3.92997 36374 ft 422 kts 271°
2026-04-26 12:24 55.91569 3.82550 36378 ft 422 kts 271°
2026-04-26 12:25 55.91547 3.66867 36380 ft 422 kts 271°
2026-04-26 12:25 55.91522 3.56416 36375 ft 422 kts 271°
2026-04-26 12:26 55.91103 3.45987 36370 ft 424 kts 260°
2026-04-26 12:26 55.89817 3.35707 36371 ft 425 kts 259°
2026-04-26 12:27 55.88528 3.25513 36382 ft 425 kts 259°
2026-04-26 12:27 55.87244 3.15241 36383 ft 425 kts 259°
2026-04-26 12:28 55.85962 3.04956 36383 ft 426 kts 259°
2026-04-26 12:28 55.84674 2.94666 36384 ft 426 kts 259°
2026-04-26 12:29 55.83377 2.84380 36381 ft 426 kts 259°
2026-04-26 12:30 55.81415 2.68957 36381 ft 426 kts 259°
2026-04-26 12:30 55.80095 2.58680 36379 ft 426 kts 259°
2026-04-26 12:31 55.78100 2.43285 36377 ft 426 kts 259°
2026-04-26 12:31 55.76759 2.33029 36377 ft 426 kts 259°
2026-04-26 12:32 55.75420 2.22855 36362 ft 426 kts 258°
2026-04-26 12:33 55.73383 2.07515 36371 ft 425 kts 258°
2026-04-26 12:33 55.72017 1.97323 36367 ft 425 kts 258°
2026-04-26 12:34 55.70642 1.87126 36373 ft 425 kts 258°
2026-04-26 12:34 55.69260 1.76948 36367 ft 425 kts 258°
2026-04-26 12:35 55.67869 1.66773 36363 ft 425 kts 258°
2026-04-26 12:35 55.66470 1.56612 36370 ft 424 kts 258°
2026-04-26 12:36 55.65065 1.46469 36362 ft 424 kts 258°
2026-04-26 12:36 55.63651 1.36333 36362 ft 424 kts 258°
2026-04-26 12:37 55.62229 1.26208 36363 ft 424 kts 257°
2026-04-26 12:37 55.60801 1.16104 36362 ft 423 kts 257°
2026-04-26 12:38 55.59365 1.06013 36362 ft 423 kts 257°
2026-04-26 12:38 55.57922 0.95937 36361 ft 423 kts 257°
2026-04-26 12:39 55.56474 0.85885 36359 ft 422 kts 257°
2026-04-26 12:39 55.55018 0.75847 36359 ft 422 kts 257°
2026-04-26 12:40 55.53556 0.65827 36350 ft 421 kts 257°
2026-04-26 12:40 55.52086 0.55819 36332 ft 421 kts 257°
2026-04-26 12:41 55.50610 0.45839 36341 ft 420 kts 256°
2026-04-26 12:41 55.49129 0.35883 36348 ft 419 kts 256°
2026-04-26 12:42 55.47642 0.25941 36346 ft 419 kts 256°
2026-04-26 12:42 55.46148 0.16024 36346 ft 419 kts 256°
2026-04-26 12:43 55.44644 0.06098 36343 ft 419 kts 256°
2026-04-26 12:43 55.43135 -0.03808 36339 ft 419 kts 256°
2026-04-26 12:44 55.41626 -0.13643 36337 ft 419 kts 256°
2026-04-26 12:44 55.40101 -0.23532 36342 ft 419 kts 256°
2026-04-26 12:45 55.38567 -0.33410 36340 ft 419 kts 255°
2026-04-26 12:45 55.37024 -0.43294 36341 ft 419 kts 255°
2026-04-26 12:46 55.35473 -0.53175 36334 ft 419 kts 255°
2026-04-26 12:46 55.33915 -0.63031 36336 ft 419 kts 255°
2026-04-26 12:47 55.32349 -0.72890 36323 ft 419 kts 255°
2026-04-26 12:47 55.30775 -0.82735 36326 ft 419 kts 255°
2026-04-26 12:48 55.29193 -0.92581 36324 ft 419 kts 255°
2026-04-26 12:48 55.27602 -1.02417 36316 ft 419 kts 255°
2026-04-26 12:49 55.26002 -1.12252 36310 ft 419 kts 255°
2026-04-26 12:49 55.24394 -1.22088 35901 ft 425 kts 255°
2026-04-26 12:49 55.23592 -1.26970 35404 ft 420 kts 255°
2026-04-26 12:50 55.22769 -1.31966 34713 ft 420 kts 255°
2026-04-26 12:50 55.21969 -1.36806 34023 ft 419 kts 255°
2026-04-26 12:50 55.21158 -1.41702 33280 ft 419 kts 255°
2026-04-26 12:50 55.20346 -1.46590 32573 ft 418 kts 255°
2026-04-26 12:51 55.19523 -1.51530 31839 ft 417 kts 255°
2026-04-26 12:51 55.18708 -1.56409 31087 ft 418 kts 255°
2026-04-26 12:51 55.17891 -1.61286 30339 ft 418 kts 255°
2026-04-26 12:51 55.17071 -1.66171 29541 ft 417 kts 254°
2026-04-26 12:52 55.16267 -1.70938 28978 ft 411 kts 254°
2026-04-26 12:52 55.15463 -1.75701 28448 ft 405 kts 254°
2026-04-26 12:52 55.14669 -1.80400 27899 ft 401 kts 254°
2026-04-26 12:52 55.13868 -1.85115 27330 ft 397 kts 254°
2026-04-26 12:53 55.13166 -1.89683 26788 ft 393 kts 261°
2026-04-26 12:53 55.13125 -1.94434 26287 ft 390 kts 276°
2026-04-26 12:53 55.13694 -1.99050 25847 ft 393 kts 287°
2026-04-26 12:53 55.14879 -2.03469 25430 ft 410 kts 297°
2026-04-26 12:54 55.16318 -2.07821 24952 ft 418 kts 298°
2026-04-26 12:54 55.17799 -2.12201 24491 ft 417 kts 299°
2026-04-26 12:54 55.19272 -2.16565 24010 ft 415 kts 299°
2026-04-26 12:54 55.20725 -2.20906 23487 ft 412 kts 298°
2026-04-26 12:55 55.22161 -2.25243 22976 ft 409 kts 298°
2026-04-26 12:55 55.23574 -2.29541 22515 ft 406 kts 298°
2026-04-26 12:55 55.24973 -2.33819 22067 ft 403 kts 298°
2026-04-26 12:55 55.26360 -2.38079 21608 ft 401 kts 297°
2026-04-26 12:56 55.27734 -2.42308 21163 ft 398 kts 297°
2026-04-26 12:56 55.29099 -2.46521 20711 ft 396 kts 297°
2026-04-26 12:56 55.30452 -2.50703 20279 ft 393 kts 297°
2026-04-26 12:56 55.31799 -2.54872 19847 ft 391 kts 297°
2026-04-26 12:57 55.33132 -2.59006 19421 ft 388 kts 297°
2026-04-26 12:57 55.34460 -2.63131 18992 ft 386 kts 297°
2026-04-26 12:57 55.35776 -2.67224 18566 ft 384 kts 297°
2026-04-26 12:58 55.38381 -2.75349 17628 ft 378 kts 297°
2026-04-26 12:58 55.39663 -2.79356 17184 ft 374 kts 297°
2026-04-26 12:58 55.40924 -2.83307 16772 ft 367 kts 296°
2026-04-26 12:58 55.42163 -2.87193 16362 ft 361 kts 297°
2026-04-26 12:59 55.43370 -2.90980 15954 ft 349 kts 296°
2026-04-26 12:59 55.44538 -2.94649 15570 ft 338 kts 296°
2026-04-26 12:59 55.45665 -2.98205 15199 ft 328 kts 295°
2026-04-26 12:59 55.46442 -3.01876 14833 ft 314 kts 279°
2026-04-26 13:00 55.46822 -3.05598 14529 ft 305 kts 278°
2026-04-26 13:00 55.47063 -3.08018 14289 ft 300 kts 278°
2026-04-26 13:00 55.47426 -3.11592 13936 ft 293 kts 278°
2026-04-26 13:00 55.47786 -3.15077 13582 ft 286 kts 277°
2026-04-26 13:01 55.48141 -3.18476 13265 ft 278 kts 278°
2026-04-26 13:01 55.48491 -3.21796 12949 ft 273 kts 278°
2026-04-26 13:01 55.48836 -3.25046 12647 ft 267 kts 278°
2026-04-26 13:01 55.49173 -3.28233 12351 ft 261 kts 278°
2026-04-26 13:02 55.49503 -3.31351 12067 ft 256 kts 278°
2026-04-26 13:02 55.49881 -3.34382 11771 ft 253 kts 288°
2026-04-26 13:02 55.50926 -3.36867 11500 ft 256 kts 315°
2026-04-26 13:02 55.52290 -3.38845 11228 ft 253 kts 316°
2026-04-26 13:03 55.53648 -3.40787 10943 ft 249 kts 316°
2026-04-26 13:03 55.54986 -3.42709 10647 ft 246 kts 315°
2026-04-26 13:03 55.56298 -3.44600 10382 ft 242 kts 315°
2026-04-26 13:03 55.57591 -3.46482 10101 ft 239 kts 315°
2026-04-26 13:04 55.58867 -3.48352 9810 ft 237 kts 315°
2026-04-26 13:04 55.60136 -3.50202 9550 ft 236 kts 315°
2026-04-26 13:04 55.61400 -3.52049 9277 ft 236 kts 315°
2026-04-26 13:04 55.62647 -3.53876 9002 ft 236 kts 315°
2026-04-26 13:05 55.63904 -3.55719 8694 ft 234 kts 315°
2026-04-26 13:05 55.65135 -3.57608 8366 ft 234 kts 314°
2026-04-26 13:05 55.66352 -3.59516 8088 ft 233 kts 314°
2026-04-26 13:05 55.67560 -3.61411 7795 ft 232 kts 314°
2026-04-26 13:06 55.68764 -3.63299 7503 ft 231 kts 314°
2026-04-26 13:06 55.69982 -3.65145 7208 ft 231 kts 317°
2026-04-26 13:06 55.71222 -3.66949 6923 ft 230 kts 317°
2026-04-26 13:06 55.72456 -3.68746 6646 ft 229 kts 317°
2026-04-26 13:07 55.73678 -3.70531 6386 ft 226 kts 317°
2026-04-26 13:07 55.74884 -3.72296 6101 ft 225 kts 317°
2026-04-26 13:07 55.76050 -3.74131 5787 ft 222 kts 307°
2026-04-26 13:07 55.77099 -3.76099 5436 ft 221 kts 317°
2026-04-26 13:08 55.78279 -3.77731 5314 ft 208 kts 322°
2026-04-26 13:08 55.79597 -3.78490 5233 ft 197 kts
2026-04-26 13:08 55.80797 -3.77406 5180 ft 198 kts 46°
2026-04-26 13:08 55.81673 -3.75599 4937 ft 188 kts 51°
2026-04-26 13:09 55.82473 -3.73846 4693 ft 177 kts 51°
2026-04-26 13:09 55.83180 -3.72127 4456 ft 168 kts 56°
2026-04-26 13:09 55.83812 -3.70400 4238 ft 168 kts 58°
2026-04-26 13:09 55.84423 -3.68636 4012 ft 167 kts 59°
2026-04-26 13:10 55.85022 -3.66870 3781 ft 166 kts 59°
2026-04-26 13:10 55.85614 -3.65111 3560 ft 166 kts 59°
2026-04-26 13:10 55.86206 -3.63352 3339 ft 165 kts 60°
2026-04-26 13:10 55.86793 -3.61601 3112 ft 164 kts 59°
2026-04-26 13:11 55.87375 -3.59867 2889 ft 163 kts 60°
2026-04-26 13:11 55.87952 -3.58150 2672 ft 161 kts 60°
2026-04-26 13:11 55.88522 -3.56454 2447 ft 158 kts 59°
2026-04-26 13:11 55.89081 -3.54794 2241 ft 155 kts 59°
2026-04-26 13:12 55.89633 -3.53153 2030 ft 154 kts 59°
2026-04-26 13:12 55.90180 -3.51526 1814 ft 153 kts 59°
2026-04-26 13:12 55.90726 -3.49906 1601 ft 152 kts 59°
2026-04-26 13:12 55.91270 -3.48292 1399 ft 152 kts 59°
2026-04-26 13:13 55.91815 -3.46673 1183 ft 152 kts 59°
2026-04-26 13:13 55.92345 -3.45051 989 ft 151 kts 60°
2026-04-26 13:13 55.92877 -3.43446 765 ft 151 kts 58°
2026-04-26 13:13 55.93432 -3.41867 559 ft 149 kts 57°
2026-04-26 13:14 55.93971 -3.40293 357 ft 148 kts 58°
2026-04-26 13:14 55.94500 -3.38725 141 ft 147 kts 58°
2026-04-26 13:14 55.94985 -3.37278 107 ft 119 kts 58°
2026-04-26 13:14 55.95307 -3.36342 100 ft 57 kts 58°
2026-04-26 13:15 55.95475 -3.35846 101 ft 32 kts 59°
2026-04-26 13:15 55.95552 -3.35617 100 ft 13 kts 59°
2026-04-26 13:15 55.95557 -3.35523 100 ft 8 kts 113°
2026-04-26 13:15 55.95520 -3.35457 100 ft 8 kts 143°
2026-04-26 13:16 55.95475 -3.35410 102 ft 7 kts 156°
2026-04-26 13:16 55.95428 -3.35425 103 ft 7 kts 219°
2026-04-26 13:16 55.95398 -3.35495 105 ft 7 kts 239°
2026-04-26 13:16 55.95374 -3.35570 104 ft 7 kts 239°
2026-04-26 13:17 55.95308 -3.35764 101 ft 10 kts 237°
2026-04-26 13:17 55.95274 -3.35865 100 ft 9 kts 240°
2026-04-26 13:18 55.95203 -3.36076 101 ft 10 kts 238°
2026-04-26 13:18 55.95170 -3.36157 103 ft 7 kts 218°
2026-04-26 13:18 55.95106 -3.36071 103 ft 7 kts 107°
2026-04-26 13:19 55.95091 -3.35993 104 ft 7 kts 109°
2026-04-26 13:19 55.95074 -3.35922 105 ft 6 kts 118°
2026-04-26 13:19 55.95052 -3.35855 105 ft 7 kts 130°
2026-04-26 13:19 55.95007 -3.35838 105 ft 6 kts 192°
2026-04-26 13:20 55.94980 -3.35865 106 ft 4 kts 230°
2026-04-26 13:20 55.94970 -3.35917 106 ft 5 kts 253°
2026-04-26 13:20 55.94962 -3.35971 106 ft 4 kts 254°
2026-04-26 13:20 55.94954 -3.36020 105 ft 3 kts 254°
2026-04-26 13:21 55.94952 -3.36031 104 ft 0 kts 254°